GW3180 Weather Reports


Display with metric or nautical units.
time (UTC)temp
F
wind
direction
speed
MPH
gust
MPH
rain 1hr
in
rain 24hr
in
rain mn
in
humidity
%
barometer
mb
20260510115657 66 209 0.0 0.0 0.00 0.00 0.00 96 1009.0
20260510115156 66 209 0.0 0.0 0.00 0.00 0.00 96 1009.0
20260510114646 66 209 0.0 0.0 0.00 0.00 0.00 96 1008.9
20260510114142 66 209 0.0 0.0 0.00 0.00 0.00 96 1008.9
20260510113638 66 209 0.0 0.0 0.00 0.00 0.00 95 1009.0
20260510113135 67 209 0.0 0.0 0.00 0.00 0.00 95 1009.1
20260510112631 67 209 0.0 0.0 0.00 0.00 0.00 95 1008.9
20260510112128 67 209 0.0 0.0 0.00 0.00 0.00 95 1008.8
20260510111624 67 209 0.0 0.0 0.00 0.00 0.00 95 1008.8
20260510111120 67 201 0.0 0.0 0.00 0.00 0.00 95 1008.9
20260510110616 67 201 0.0 0.0 0.00 0.00 0.00 95 1008.9
20260510110113 67 173 0.0 0.0 0.00 0.00 0.00 95 1009.0
20260510105609 67 173 0.0 0.0 0.00 0.00 0.00 95 1008.8
20260510105103 67 173 0.0 0.0 0.00 0.00 0.00 95 1009.2
20260510104601 67 173 0.0 0.0 0.00 0.00 0.00 95 1009.1
20260510104057 67 173 0.0 0.0 0.00 0.00 0.00 95 1009.2
20260510103554 67 183 0.0 0.0 0.00 0.00 0.00 95 1008.9
20260510103050 67 200 0.0 0.0 0.00 0.00 0.00 95 1008.9
20260510102545 67 200 0.0 0.0 0.00 0.00 0.00 95 1009.0
20260510102042 67 200 0.0 0.0 0.00 0.00 0.00 94 1009.0
20260510101540 67 200 0.0 0.0 0.00 0.00 0.00 95 1008.9
20260510101038 67 200 0.0 0.0 0.00 0.00 0.00 94 1009.0
20260510100534 67 200 0.0 0.0 0.00 0.00 0.00 94 1008.7
20260510100032 67 200 0.0 0.0 0.00 0.00 0.00 94 1008.6
20260510095527 67 200 0.0 0.0 0.00 0.00 0.00 94 1008.8
20260510095026 67 200 0.0 0.0 0.00 0.00 0.00 95 1008.8
20260510094521 67 214 0.0 0.0 0.00 0.00 0.00 95 1009.0
20260510094017 67 214 0.0 0.0 0.00 0.00 0.00 95 1008.8
20260510093513 67 214 0.0 0.0 0.00 0.00 0.00 96 1008.6
20260510093010 66 214 0.0 0.0 0.00 0.00 0.00 95 1008.5
20260510092507 67 214 0.0 0.0 0.00 0.00 0.00 95 1008.7
20260510092006 67 214 0.0 0.0 0.00 0.00 0.00 95 1008.5
20260510091504 67 214 0.0 0.0 0.00 0.00 0.00 94 1008.6
20260510090959 67 214 0.0 0.0 0.00 0.00 0.00 94 1008.7
20260510090457 67 214 0.0 0.0 0.00 0.00 0.00 94 1008.5
20260510085952 67 214 0.0 0.0 0.00 0.00 0.00 94 1008.5
20260510085447 68 214 0.0 0.0 0.00 0.00 0.00 94 1008.2
20260510084943 68 214 0.0 0.0 0.00 0.00 0.00 94 1008.5
20260510084440 68 214 0.0 0.0 0.00 0.00 0.00 93 1008.4
20260510083937 68 214 0.0 0.0 0.00 0.00 0.00 92 1008.4
20260510083434 68 214 0.0 0.0 0.00 0.00 0.00 92 1008.4
20260510082929 69 214 0.0 0.0 0.00 0.00 0.00 92 1008.2
20260510082427 69 214 0.0 0.0 0.00 0.00 0.00 91 1008.6
20260510081926 69 214 0.0 0.0 0.00 0.00 0.00 91 1008.5
20260510081422 69 214 0.0 0.0 0.00 0.00 0.00 90 1008.5
20260510080918 69 214 0.0 0.0 0.00 0.00 0.00 90 1008.3
20260510080417 70 214 0.0 0.0 0.00 0.00 0.00 90 1008.3
20260510075914 70 214 0.0 0.0 0.00 0.00 0.00 90 1008.4
20260510075412 70 214 0.0 0.0 0.00 0.00 0.00 90 1008.1
20260510074909 70 214 0.0 0.0 0.00 0.00 0.00 89 1008.0
20260510074406 70 214 0.0 0.0 0.00 0.00 0.00 89 1008.0
20260510073902 71 214 0.0 0.0 0.00 0.00 0.00 88 1008.2
20260510073358 71 214 0.0 0.0 0.00 0.00 0.00 88 1008.1
20260510072854 71 214 0.0 0.0 0.00 0.00 0.00 87 1008.2
20260510072351 71 214 0.0 0.0 0.00 0.00 0.00 87 1008.3
20260510071847 71 214 0.0 0.0 0.00 0.00 0.00 87 1008.2
20260510071343 71 214 0.0 0.0 0.00 0.00 0.00 87 1008.4
20260510070842 72 214 0.0 0.0 0.00 0.00 0.00 86 1008.2
20260510070338 72 214 0.0 0.0 0.00 0.00 0.00 86 1008.5
20260510065833 72 214 0.0 0.0 0.00 0.00 0.00 85 1008.4
20260510065330 72 214 0.0 0.0 0.00 0.00 0.00 85 1008.5
20260510064827 73 214 0.0 0.0 0.00 0.00 0.00 84 1008.2
20260510064325 73 214 0.0 0.0 0.00 0.00 0.00 84 1008.4
20260510063821 73 231 0.0 0.0 0.00 0.00 0.00 83 1008.6
20260510063318 73 231 0.0 0.0 0.00 0.00 0.00 83 1008.4
20260510062814 74 232 0.0 0.0 0.00 0.00 0.00 83 1008.4
20260510062309 74 229 0.0 0.0 0.00 0.00 0.00 82 1008.5
20260510061805 74 229 0.0 0.0 0.00 0.00 0.00 81 1008.6
20260510061302 74 228 0.0 0.0 0.00 0.00 0.00 81 1008.5
20260510060758 75 228 0.0 0.0 0.00 0.00 0.00 80 1008.4
20260510060250 75 237 0.0 0.0 0.00 0.00 0.00 80 1008.5
20260510055746 75 209 0.0 0.0 0.00 0.00 0.00 80 1008.5
20260510055245 75 221 0.0 0.0 0.00 0.00 0.00 80 1008.5
20260510054744 75 236 0.0 0.0 0.00 0.00 0.00 80 1008.2
20260510054241 75 200 0.0 0.0 0.00 0.00 0.00 80 1008.2
20260510053740 75 210 0.0 0.0 0.00 0.00 0.00 81 1008.1
20260510053237 75 201 0.0 0.0 0.00 0.00 0.00 82 1008.1
20260510052732 75 199 0.0 0.0 0.00 0.00 0.00 82 1007.9
20260510052229 75 199 0.0 0.0 0.00 0.00 0.00 81 1008.1
20260510051725 75 202 0.0 0.0 0.00 0.00 0.00 81 1008.0
20260510051221 76 193 0.0 0.0 0.00 0.00 0.00 81 1008.0
20260510050718 76 210 0.0 0.0 0.00 0.00 0.00 80 1008.0
20260510050216 76 193 0.0 0.0 0.00 0.00 0.00 80 1007.9
20260510045712 77 222 0.0 0.0 0.00 0.02 0.02 79 1007.7
20260510045209 77 223 0.0 0.0 0.00 0.02 0.02 79 1007.5
20260510044705 77 218 0.0 0.0 0.00 0.02 0.02 79 1007.7
20260510044203 77 213 0.0 0.0 0.00 0.02 0.02 79 1007.8
20260510043658 77 213 0.0 0.0 0.00 0.02 0.02 78 1008.0
20260510043155 77 214 0.0 0.0 0.00 0.02 0.02 78 1007.6
20260510042652 77 206 0.0 0.0 0.00 0.02 0.02 77 1007.7
20260510042148 77 225 0.0 1.0 0.00 0.02 0.02 77 1007.7
20260510041646 77 220 0.0 0.0 0.00 0.02 0.02 77 1007.7
20260510041143 77 208 0.0 0.0 0.00 0.02 0.02 77 1007.8
20260510040640 77 205 0.0 0.0 0.00 0.02 0.02 76 1007.7
20260510040137 78 206 0.0 0.0 0.00 0.02 0.02 75 1007.6
20260510035632 78 209 0.0 0.0 0.00 0.02 0.02 75 1007.3
20260510035127 78 209 0.0 0.0 0.00 0.02 0.02 75 1007.3
20260510034625 78 206 0.0 0.0 0.00 0.02 0.02 75 1007.3
20260510034121 78 234 0.0 0.0 0.00 0.02 0.02 74 1007.3
20260510033618 79 205 0.0 0.0 0.00 0.02 0.02 74 1007.1
20260510033116 78 204 1.0 2.0 0.00 0.02 0.02 74 1007.2
20260510032612 78 213 0.0 0.0 0.00 0.02 0.02 74 1007.3
20260510032107 78 218 0.0 0.0 0.00 0.02 0.02 74 1007.1
20260510031602 79 218 0.0 0.0 0.00 0.02 0.02 74 1006.9
20260510031059 79 218 0.0 0.0 0.00 0.02 0.02 73 1006.8
20260510030554 79 214 0.0 0.0 0.00 0.02 0.02 73 1006.9
20260510030051 80 217 0.0 0.0 0.00 0.02 0.02 73 1006.9
20260510025543 80 217 0.0 0.0 0.00 0.02 0.02 72 1006.8
20260510025040 80 217 0.0 0.0 0.00 0.02 0.02 72 1006.7
20260510024537 80 225 1.0 1.0 0.00 0.02 0.02 72 1006.7
20260510024033 80 217 0.0 1.0 0.00 0.02 0.02 72 1006.7
20260510023529 81 260 0.0 0.0 0.00 0.02 0.02 72 1006.6
20260510023026 81 226 0.0 0.0 0.00 0.02 0.02 72 1006.6
20260510022525 81 202 0.0 1.0 0.00 0.02 0.02 72 1006.5
20260510022020 81 218 0.0 0.0 0.00 0.02 0.02 72 1006.6
20260510021517 81 232 0.0 0.0 0.00 0.02 0.02 71 1006.3
20260510021015 82 233 0.0 0.0 0.00 0.02 0.02 71 1006.2
20260510020509 82 207 0.0 0.0 0.00 0.02 0.02 71 1006.0
20260510020005 82 226 0.0 0.0 0.00 0.02 0.02 70 1006.3
20260510015500 82 169 0.0 1.0 0.00 0.02 0.02 70 1006.1
20260510014956 82 210 0.0 1.0 0.00 0.02 0.02 70 1006.1
20260510014454 81 201 0.0 0.0 0.00 0.02 0.02 70 1006.0
20260510013950 81 210 0.0 0.0 0.00 0.02 0.02 70 1005.9
20260510013445 81 214 0.0 0.0 0.00 0.02 0.02 70 1005.4
20260510012941 81 214 0.0 0.0 0.00 0.02 0.02 70 1005.4
20260510012436 82 214 0.0 0.0 0.00 0.02 0.02 70 1005.6
20260510011931 82 214 0.0 0.0 0.00 0.02 0.02 67 1005.5
20260510011426 83 214 0.0 0.0 0.00 0.02 0.02 67 1005.3
20260510010922 83 216 0.0 0.0 0.00 0.02 0.02 66 1005.4
20260510010420 84 225 0.0 0.0 0.00 0.02 0.02 65 1005.1
20260510005916 84 238 0.0 0.0 0.00 0.02 0.02 64 1005.1
20260510005412 85 239 0.0 0.0 0.00 0.02 0.02 64 1005.1
20260510004910 86 239 0.0 0.0 0.00 0.02 0.02 63 1004.9
20260510004407 86 239 0.0 0.0 0.00 0.02 0.02 62 1005.0
20260510003905 87 212 0.0 0.0 0.00 0.02 0.02 61 1004.9
20260510003402 88 85 0.0 0.0 0.00 0.02 0.02 61 1005.0
20260510002901 88 258 0.0 0.0 0.00 0.02 0.02 60 1004.8
20260510002358 88 243 0.0 0.0 0.00 0.02 0.02 60 1004.6
20260510001854 88 216 0.0 0.0 0.00 0.02 0.02 60 1004.9
20260510001353 88 245 0.0 1.0 0.00 0.02 0.02 61 1004.7
20260510000849 88 236 0.0 0.0 0.00 0.02 0.02 59 1004.8
20260510000348 89 215 0.0 0.0 0.00 0.02 0.02 59 1004.9
20260509235842 89 222 0.0 1.0 0.00 0.02 0.02 60 1005.0
20260509235339 89 221 0.0 0.0 0.00 0.02 0.02 59 1004.9
20260509234835 90 211 0.0 0.0 0.00 0.02 0.02 59 1005.2
20260509234332 89 234 0.0 0.0 0.00 0.02 0.02 59 1005.1
20260509233830 89 213 0.0 1.0 0.00 0.02 0.02 59 1005.0
20260509233328 89 222 0.0 0.0 0.00 0.02 0.02 59 1004.9
20260509232822 89 215 0.0 0.0 0.00 0.02 0.02 58 1005.1
20260509232321 90 225 0.0 0.0 0.00 0.02 0.02 58 1004.9
20260509231817 89 216 0.0 1.0 0.00 0.02 0.02 56 1005.0
20260509231314 90 217 0.0 0.0 0.00 0.02 0.02 58 1004.9
20260509230812 90 219 0.0 0.0 0.00 0.02 0.02 55 1004.9
20260509230309 90 172 1.0 1.0 0.00 0.02 0.02 57 1005.0
20260509225803 90 245 0.0 0.0 0.00 0.02 0.02 57 1004.9
20260509225301 90 161 0.0 1.0 0.00 0.02 0.02 55 1004.8
20260509224756 90 236 0.0 0.0 0.00 0.02 0.02 55 1004.7
20260509224253 91 228 0.0 1.0 0.00 0.02 0.02 55 1004.7
20260509223750 92 223 0.0 0.0 0.00 0.02 0.02 55 1004.8
20260509223247 92 241 0.0 0.0 0.00 0.02 0.02 57 1005.0
20260509222743 92 141 0.0 1.0 0.00 0.02 0.02 52 1004.8
20260509222239 92 221 0.0 1.0 0.00 0.02 0.02 56 1005.0
20260509221734 92 256 0.0 0.0 0.00 0.02 0.02 54 1004.8
20260509221231 93 258 1.0 2.0 0.00 0.02 0.02 56 1004.9
20260509220727 92 248 0.0 0.0 0.00 0.02 0.02 56 1004.9
20260509220224 91 205 1.0 1.0 0.00 0.02 0.02 55 1005.2
20260509215719 91 263 0.0 0.0 0.00 0.02 0.02 51 1005.0
20260509215216 91 249 0.0 0.0 0.00 0.02 0.02 54 1005.1
20260509214713 91 242 0.0 0.0 0.00 0.02 0.02 59 1004.9
20260509214210 90 267 0.0 1.0 0.00 0.02 0.02 55 1004.9
20260509213707 90 248 3.0 4.0 0.00 0.02 0.02 55 1005.0
20260509213202 89 272 0.0 0.0 0.00 0.02 0.02 59 1004.9
20260509212701 90 275 2.0 3.0 0.00 0.02 0.02 55 1005.3
20260509212157 90 324 1.0 1.0 0.00 0.02 0.02 53 1005.1
20260509211653 90 265 2.0 3.0 0.00 0.02 0.02 52 1005.4
20260509211150 90 256 0.0 0.0 0.00 0.02 0.02 58 1005.2
20260509210646 89 261 2.0 2.0 0.00 0.02 0.02 60 1005.3
20260509210143 90 277 1.0 2.0 0.00 0.02 0.02 58 1005.7
20260509205638 89 210 0.0 0.0 0.00 0.02 0.02 64 1005.6
20260509205133 88 264 0.0 1.0 0.00 0.02 0.02 63 1005.6
20260509204630 89 223 0.0 0.0 0.00 0.02 0.02 64 1005.6
20260509204126 90 241 0.0 0.0 0.00 0.02 0.02 62 1005.7
20260509203622 90 234 0.0 0.0 0.00 0.02 0.02 64 1005.8
20260509203121 90 264 1.0 1.0 0.00 0.02 0.02 60 1006.0
20260509202620 90 247 0.0 0.0 0.00 0.02 0.02 61 1005.8
20260509202115 89 253 0.0 0.0 0.00 0.02 0.02 60 1006.1
20260509201610 89 100 0.0 0.0 0.00 0.02 0.02 63 1006.2
20260509201109 88 93 0.0 0.0 0.00 0.02 0.02 60 1006.3
20260509200608 87 96 0.0 0.0 0.00 0.02 0.02 67 1006.4
20260509200059 88 277 0.0 1.0 0.00 0.02 0.02 62 1006.7
20260509195555 88 232 0.0 1.0 0.00 0.02 0.02 63 1006.7
20260509195049 87 241 0.0 0.0 0.00 0.02 0.02 64 1006.8
20260509194544 89 248 2.0 4.0 0.00 0.02 0.02 65 1006.9
20260509194042 89 261 0.0 0.0 0.00 0.02 0.02 64 1006.9
20260509193537 88 225 1.0 1.0 0.00 0.02 0.02 68 1007.1
20260509193033 89 223 0.0 0.0 0.00 0.02 0.02 64 1007.0
20260509192530 89 241 0.0 0.0 0.00 0.02 0.02 64 1006.8
20260509192025 89 265 1.0 2.0 0.00 0.02 0.02 64 1007.1
20260509191520 87 275 2.0 2.0 0.00 0.02 0.02 63 1007.2
20260509191016 86 260 3.0 4.0 0.00 0.02 0.02 69 1007.2
20260509190513 88 244 0.0 0.0 0.00 0.02 0.02 67 1007.2
20260509190011 87 269 1.0 2.0 0.00 0.02 0.02 65 1007.5
20260509185508 87 257 2.0 2.0 0.00 0.02 0.02 68 1007.6
20260509185004 87 253 0.0 1.0 0.00 0.02 0.02 69 1007.2
20260509184503 87 262 3.0 3.0 0.00 0.02 0.02 70 1007.1
20260509183958 86 232 0.0 0.0 0.00 0.02 0.02 71 1007.3
20260509183453 85 246 2.0 3.0 0.00 0.02 0.02 72 1007.2
20260509182950 85 268 1.0 2.0 0.00 0.02 0.02 73 1007.6
20260509182446 86 263 0.0 1.0 0.00 0.02 0.02 73 1007.5
20260509181944 84 263 1.0 2.0 0.00 0.02 0.02 75 1007.8
20260509181441 86 234 1.0 1.0 0.00 0.02 0.02 74 1007.8
20260509180939 86 273 5.0 7.0 0.00 0.02 0.02 71 1008.0
20260509180434 85 269 0.0 0.0 0.00 0.02 0.02 73 1007.9
20260509175931 86 266 2.0 3.0 0.00 0.02 0.02 73 1007.8
20260509175427 85 237 2.0 3.0 0.00 0.02 0.02 74 1007.9
20260509174923 84 248 0.0 1.0 0.00 0.02 0.02 74 1008.1
20260509174420 84 237 1.0 1.0 0.00 0.02 0.02 74 1008.2
20260509173915 86 252 2.0 2.0 0.00 0.02 0.02 70 1008.3
20260509173409 85 255 0.0 0.0 0.00 0.02 0.02 72 1008.4
20260509172907 86 255 2.0 2.0 0.00 0.02 0.02 72 1008.3
20260509172403 84 252 1.0 2.0 0.00 0.02 0.02 73 1008.3
20260509171859 85 117 0.0 1.0 0.00 0.02 0.02 72 1008.3
20260509171355 84 191 0.0 0.0 0.00 0.02 0.02 72 1008.6
20260509170852 84 261 1.0 2.0 0.00 0.02 0.02 74 1008.2
20260509170347 84 221 4.0 6.0 0.00 0.02 0.02 73 1008.2
20260509165842 84 104 1.0 2.0 0.00 0.02 0.02 72 1008.3
20260509165337 84 266 1.0 1.0 0.00 0.02 0.02 73 1008.2
20260509164833 84 255 2.0 4.0 0.00 0.02 0.02 73 1008.1
20260509164330 84 101 1.0 1.0 0.00 0.02 0.02 76 1008.1
20260509163826 82 268 2.0 2.0 0.00 0.02 0.02 78 1008.2
20260509163322 83 225 1.0 2.0 0.00 0.02 0.02 78 1008.1
20260509162821 83 214 1.0 2.0 0.00 0.02 0.02 79 1008.2
20260509162314 83 266 2.0 3.0 0.00 0.02 0.02 80 1008.2
20260509161810 82 244 0.0 0.0 0.00 0.02 0.02 81 1008.4
20260509161307 81 249 1.0 2.0 0.00 0.02 0.02 82 1008.6
20260509160802 80 239 0.0 0.0 0.00 0.02 0.02 81 1008.6
20260509160259 80 222 2.0 2.0 0.00 0.02 0.02 83 1008.8
20260509155754 79 242 1.0 1.0 0.00 0.02 0.02 84 1008.7
20260509155251 80 246 0.0 1.0 0.00 0.02 0.02 85 1008.9
20260509154747 80 206 0.0 1.0 0.00 0.02 0.02 85 1009.0
20260509154244 81 215 0.0 0.0 0.00 0.02 0.02 84 1009.0
20260509153741 82 233 0.0 0.0 0.00 0.02 0.02 82 1009.1
20260509153237 81 76 1.0 2.0 0.00 0.02 0.02 85 1009.1
20260509152734 78 257 0.0 0.0 0.00 0.02 0.02 88 1009.1
20260509152230 79 298 0.0 0.0 0.00 0.02 0.02 90 1009.1
20260509151727 78 213 0.0 0.0 0.00 0.02 0.02 91 1009.3
20260509151224 77 228 0.0 0.0 0.00 0.02 0.02 94 1009.3
20260509150721 77 243 0.0 0.0 0.05 0.02 0.02 95 1009.3
20260509150220 76 222 0.0 1.0 0.12 0.02 0.02 95 1009.0
20260509145716 76 202 0.0 1.0 0.07 0.01 0.01 96 1009.1
20260509145211 76 222 1.0 1.0 0.00 0.00 0.00 95 1009.4
20260509144708 76 216 0.0 0.0 0.00 0.00 0.00 95 1009.4
20260509144205 76 207 0.0 0.0 0.00 0.00 0.00 95 1009.5
20260509143702 75 215 1.0 1.0 0.00 0.00 0.00 96 1009.2
20260509143159 75 119 3.0 4.0 0.00 0.00 0.00 96 1009.1
20260509142655 74 205 1.0 1.0 0.00 0.00 0.00 97 1009.2
20260509142152 74 228 1.0 1.0 0.00 0.00 0.00 97 1009.2
20260509141647 75 177 1.0 1.0 0.00 0.00 0.00 98 1009.0
20260509141144 75 224 0.0 0.0 0.00 0.00 0.00 99 1008.9
20260509140641 74 234 0.0 0.0 0.00 0.00 0.00 99 1009.1
20260509140139 74 234 0.0 0.0 0.00 0.00 0.00 99 1008.9
20260509135636 74 238 0.0 0.0 0.00 0.00 0.00 99 1009.0
20260509135134 74 238 0.0 0.0 0.00 0.00 0.00 99 1008.8
20260509134630 74 236 0.0 0.0 0.00 0.00 0.00 99 1008.7
20260509134128 74 236 0.0 0.0 0.00 0.00 0.00 99 1008.4
20260509133625 74 236 0.0 0.0 0.00 0.00 0.00 99 1008.4
20260509133122 74 286 0.0 1.0 0.00 0.00 0.00 99 1008.1
20260509132620 74 239 0.0 0.0 0.00 0.00 0.00 99 1008.0
20260509132118 74 241 0.0 0.0 0.00 0.00 0.00 99 1008.3
20260509131614 74 215 0.0 0.0 0.00 0.00 0.00 99 1008.2
20260509131111 73 234 0.0 0.0 0.00 0.00 0.00 99 1008.6
20260509130607 73 211 0.0 1.0 0.00 0.00 0.00 99 1008.5
20260509130104 73 199 0.0 0.0 0.00 0.00 0.00 99 1008.7
20260509125600 73 145 0.0 1.0 0.00 0.00 0.00 99 1008.5
20260509125057 73 200 0.0 1.0 0.00 0.00 0.00 99 1008.8
20260509124553 73 258 0.0 0.0 0.00 0.00 0.00 99 1008.6
20260509124051 73 256 0.0 0.0 0.00 0.00 0.00 99 1008.7
20260509123548 73 160 1.0 1.0 0.00 0.00 0.00 99 1009.0
20260509123045 73 172 0.0 1.0 0.00 0.00 0.00 99 1009.0
20260509122541 73 41 2.0 2.0 0.00 0.00 0.00 99 1008.9
20260509122038 73 281 1.0 1.0 0.00 0.00 0.00 99 1008.9
20260509121534 73 259 1.0 1.0 0.00 0.00 0.00 99 1008.8
20260509121032 73 32 1.0 2.0 0.00 0.00 0.00 99 1008.4
20260509120530 73 202 1.0 1.0 0.00 0.00 0.00 99 1008.4
20260509120028 73 240 0.0 0.0 0.00 0.00 0.00 99 1008.5